sat.trackr.live / text

‹ back to catalog

ONEWEB-0363

NORAD 49289 · 2021-090L

PAYLOAD ACTIVE UNKNOWN

§ Identity

Operator
Country
UK
Launch date
2021-10-14
Launch site
VOSTO
Launch vehicle
Mass (kg)
RCS (m²)

Purposes: comms

External: N2YO · Heavens-Above · Gunter

§ Orbital elements

Epoch: 2026-05-25T03:12:57.988800Z

Period
109.03 min
Inclination
87.9176°
Eccentricity
0.0002128
Mean motion
13.20676927 rev/d
Perigee alt
1,180.5 km
Apogee alt
1,183.7 km
Semi-major
7,560.3 km
B*
-2.5958e-2
RAAN
279.0358°
Arg perigee
97.5448°
Mean anomaly
262.5927°
Rev number
22,726

§ Raw data

ONEWEB-03631 49289U 21090L   26145.13400450 -.00010514  00000+0 -25958-1 0  99912 49289  87.9176 279.0358 0002128  97.5448 262.5927 13.20676927227261

JSON: /api/v1/satellites/49289 · /tle

For live sub-satellite position, see the globe view (requires WebGL).

§ Visibility from observer

Set your observer location to see the next 7 days of passes ≥ 10°. The values pass through the URL so the page stays shareable.

No JS? Fill the form by hand. The geolocation button needs JavaScript.